Location: Branche des Alpilles
(43.6087°N, 4.6976°E)
Time: 03:54:19
(UTC+00:00)

Cosmos 773 Rocket - Pass Details

Date: 30 November 2020
Orbit: 746 x 776 km, 74.1° (Epoch: 24 January)

Event Time Altitude Azimuth Distance (km) Brightness Sun altitude
Rises 17:18:56 0° 202° (SSW) 3,221 7.8 -12.9°
Reaches altitude 10° 17:21:18 10° 203° (SSW) 2,303 7.1 -13.3°
Maximum altitude 17:26:32 80° 290° (WNW) 790 4.1 -14.2°
Drops below altitude 10° 17:31:51 10° 18° (NNE) 2,333 6.2 -15.1°
Enters shadow 17:32:48 - 19° (NNE) 2,700 6.5 -15.3°
